Reflectivity
4 19 32 29 23 19 15 13 23 14 29 6 4 -3 -19 -20 -20 -20 -20 -20 -20 -20
31 32 30 26 20 12 15 17 31 35 34 13 -19 -17 -20 -20 -20 -20 -20 -6 -20 -20
36 30 31 25 20 20 23 26 33 26 32 26 12 -2 -17 -20 -11 -7 -12 -20 -20 -20
36 32 35 32 13 17 25 26 29 30 29 23 13 -15 -6 -0 7 1 -11 -17 7 12
35 37 36 31 29 26 21 29 29 22 16 13 13 12 7 6 -3 11 12 13 4 6
18 24 26 28 14 19 26 20 22 27 23 10 12 8 6 7 16 16 17 10 13 8
8 18 11 17 18 16 18 17 21 29 24 24 23 14 9 4 2 8 -2 5 14 13
18 30 16 17 18 22 18 16 9 17 23 29 26 16 13 15 17 18 15 22 23 18
1 17 24 29 33 25 31 23 13 16 0 19 27 16 13 17 24 18 25 22 9 13
34 18 35 30 32 35 32 29 31 33 34 30 22 27 25 31 29 28 22 22 24 25
4 25 30 36 23 28 27 24 26 26 24 25 26 24 23 25 23 24 24 23 26 26
-18 -20 -15 -3 -5 -11 16 33 30 28 25 25 28 29 27 24 15 19 17 15 20 21
0 -19 -20 -20 3 10 -14 -20 -7 -4 -3 19 13 18 17 16 -2 9 12 15 13 23
-20 -16 -7 -3 -2 -1 -19 -20 -8 -6 12 -1 3 5 11 15 9 -1 4 -3 2 8
Wind_Speed
8 6 5 7 5 3 4 4 5 6 4 5 7 7 8 7 7 8 6 8 5 4
6 7 6 7 7 5 4 4 5 7 6 5 7 8 8 7 7 7 6 6 6 3
9 7 8 7 7 8 6 5 4 6 7 7 6 7 7 6 5 7 4 4 6 4
10 10 10 10 9 8 8 6 5 4 5 6 7 7 6 6 7 7 6 5 7 6
9 11 13 10 10 11 11 10 10 7 6 7 6 6 7 7 6 7 7 6 7 7
7 7 7 10 11 10 12 13 10 11 7 5 6 10 5 7 8 6 7 8 8 8
4 6 6 8 9 9 9 10 12 12 10 8 6 5 6 6 6 6 6 6 6 6
3 5 5 6 7 7 7 6 8 9 7 6 7 6 7 6 8 7 7 5 6 6
5 4 5 5 7 8 7 7 7 8 9 8 5 12 12 7 5 7 9 7 5 4
6 6 5 5 5 7 9 8 6 6 7 8 7 14 14 14 6 6 6 6 5 4
7 8 7 7 6 6 5 6 6 6 5 5 4 12 12 11 6 5 6 6 7 7
6 7 7 8 7 6 8 8 7 7 7 7 6 9 13 9 6 7 6 6 5 6
6 7 8 7 7 6 8 9 8 10 9 13 9 13 14 10 6 8 6 6 6 8
6 8 8 8 7 7 8 10 10 11 10 10 9 10 14 12 6 6 5 5 3 3
Wind_Direction
172 168 161 155 146 120 104 128 130 107 103 111 123 132 143 147 149 154 147 155 161 166
152 166 159 142 137 143 110 100 113 136 126 151 137 145 148 150 146 157 161 170 163 152
156 162 169 170 152 147 135 112 113 115 133 153 141 137 135 140 141 145 150 146 149 142
160 177 175 183 174 157 140 147 143 133 133 145 140 137 137 142 148 152 148 147 154 157
168 166 173 174 168 164 165 164 169 174 184 164 150 154 155 158 162 155 161 161 148 148
179 166 159 164 167 163 171 177 173 173 192 201 189 172 161 175 167 165 169 160 160 160
145 137 146 142 149 165 156 167 175 185 181 163 154 139 135 137 141 135 136 138 141 151
123 99 125 141 131 121 130 139 147 153 140 137 156 157 147 153 151 145 123 143 163 168
83 80 93 111 142 144 142 138 133 146 147 151 155 136 132 131 149 153 150 155 153 162
62 64 59 92 108 150 166 143 151 154 156 165 153 165 162 166 163 154 148 151 157 152
62 79 69 61 66 68 83 113 129 134 124 132 155 173 168 157 144 140 145 157 160 154
66 65 67 69 59 57 77 69 68 72 81 84 67 131 128 110 97 97 95 98 105 124
81 84 77 72 64 70 79 83 84 77 69 78 81 84 91 95 102 96 95 86 93 123
59 79 87 89 78 81 87 84 80 81 68 67 75 87 94 94 95 107 103 102 100 107